Tracking 28125 objects as of 3-Oct-2023
HD Live streaming from Space Station
objects crossing your sky now

NOAA 16 DEB

Track NOAA 16 DEB now!
10-day predictions


NORAD ID: 41430
Int'l Code: 2000-055LK
Perigee: 766.8 km
Apogee: 833.5 km
Inclination: 99.0 °
Period: 100.7 minutes
Semi major axis: 7171 km
RCS: Unknown
Launch date: September 21, 2000
Source: United States (US)
Launch site: AIR FORCE WESTERN TEST RANGE (AFWTR)

Note: This is SATELLITE DEBRIS
Your satellite tracking list
Your tracking list is empty




NASA's NSSDC Master Catalog

Two Line Element Set (TLE):
1 41430U 00055LK  23275.65491546  .00010117  00000-0  39173-2 0  9996
2 41430  98.9935  64.7758 0046509 182.5429 177.5522 14.29626786399785
Source of the keplerian elements: AFSPC